C/2019 V1 ( Borisov )

Japanese version
Home page
Updated on June 13, 2020

---------------------------------------------------------------------

* Profile

Discovery Date November 2, 2019
Magnitude 19.0 mag
Discoverer G. Borisov (MARGO observatory near Nauchnij, Crimea)

* Pictures

* Orbital Elements

Epoch 2020 July 10.0 TT = JDT 2459040.5
T 2020 July 16.56666 TT                                 Rudenko
q   3.0972457            (2000.0)            P               Q
z  +0.0003958      Peri.   51.19898     -0.29077281     -0.38560147
 +/-0.0000119      Node    83.20564     +0.33739149     -0.89772771
e   0.9987740      Incl.   61.86548     +0.89533131     +0.21306445
From 102 observations 2019 Nov. 1-2020 Mar. 23, mean residual 0".7.

* Magnitudes Graph

        m1 = 10.5 + 5 log d + 10.0 log r

---------------------------------------------------------------------

The orbital elements are published on M.P.E.C. 2020-H67.
The magnitudes graphs are made with Comet for Windows.

---------------------------------------------------------------------

Copyright(C) Seiichi Yoshida (comet@aerith.net). All rights reserved.